Regional Weather Roundup
Issued by NWS Little Rock, AR

Home | Current Version | Previous Version | Text Only | Print | Product List | Glossary Off
Versions: 1 2 3 4 5 6 7 8 9 10 11 12 13 14 15 16 17 18 19 20 21 22 23 24 25 26 27 28 29 30 31

000
ASUS44 KLZK 261812
RWRLZK

WEATHER ROUNDUP FOR ARKANSAS
NATIONAL WEATHER SERVICE LITTLE ROCK AR
100 PM CDT WED APR 26 2017

NOTE: "FAIR" INDICATES FEW OR NO CLOUDS BELOW 12,000 FEET WITH NO
SIGNIFICANT WEATHER AND/OR OBSTRUCTIONS TO VISIBILITY.

ARZ001-003-010-029-261900-
NORTHWEST ARKANSAS

CITY           SKY/WX    TMP DP  RH WIND       PRES   REMARKS
FAYETTEVILLE   LGT RAIN  51  51 100 VRB6      29.58R FOG
6HR MIN TEMP:  51; 6HR MAX TEMP:  60; 6HR PCP:  0.98;

FORT SMITH     CLOUDY    57  53  86 W9        29.54R
6HR MIN TEMP:  56; 6HR MAX TEMP:  67; 6HR PCP:  1.42;

HARRISON       LGT RAIN  56  56 100 SE14      29.53F FOG
6HR MIN TEMP:  55; 6HR MAX TEMP:  58; 6HR PCP:  1.69;

BENTONVILLE    CLOUDY    48  46  93 N13G18    29.54F
6HR MIN TEMP:  48; 6HR MAX TEMP:  61; 6HR PCP:  0.79;

ROGERS         LGT RAIN  48  46  93 NW9       29.58R FOG
6HR MIN TEMP:  49; 6HR MAX TEMP:  59; 6HR PCP:  0.90;

SILOAM SPGS    CLOUDY    48  43  81 N10       29.55F
6HR MIN TEMP:  48; 6HR MAX TEMP:  59; 6HR PCP:  0.67;

HIGHFILL       LGT RAIN  49  47  93 N18       29.55S
6HR MIN TEMP:  49; 6HR MAX TEMP:  60; 6HR PCP:  0.61;

SPRINGDALE     LGT RAIN  52  52 100 NW12G24   29.54F FOG
$$

ARZ004-005-016-261900-
NORTH CENTRAL ARKANSAS

CITY           SKY/WX    TMP DP  RH WIND       PRES   REMARKS
BATESVILLE     CLOUDY   N/A N/A N/A NW7       29.57F
FLIPPIN        CLOUDY    55  52  88 SE5       29.55F
                                      6HR PCP:  2.12;

MTN HOME       TSTM      56  54  93 S8        29.56F FOG
6HR MIN TEMP:  53; 6HR MAX TEMP:  63; 6HR PCP:  1.40;

$$

ARZ040-041-261900-
WEST CENTRAL ARKANSAS

CITY           SKY/WX    TMP DP  RH WIND       PRES   REMARKS
MENA           CLOUDY    64  64 100 NW6       29.51S
MOUNT IDA      HVY RAIN  62  61  96 SE6       29.48F FOG
6HR MIN TEMP:  61; 6HR MAX TEMP:  72; 6HR PCP:  1.79;

$$

ARZ009-017-025-026-028-261900-
NORTHEAST ARKANSAS

CITY           SKY/WX    TMP DP  RH WIND       PRES   REMARKS
JONESBORO      CLOUDY    76  64  66 S23       29.58F
6HR MIN TEMP:  67; 6HR MAX TEMP:  76;

NEWPORT        CLOUDY    75  65  70 S25       29.57F
6HR MIN TEMP:  68; 6HR MAX TEMP:  76;

WALNUT RIDGE   CLOUDY    73  63  68 S20       29.57F
6HR MIN TEMP:  66; 6HR MAX TEMP:  73;

BLYTHEVILLE    CLOUDY    76  64  66 S17G26    29.61F
6HR MIN TEMP:  64; 6HR MAX TEMP:  78;

$$

ARZ022-023-033-042-044-261900-
CENTRAL ARKANSAS

CITY           SKY/WX    TMP DP  RH WIND       PRES   REMARKS
LITTLE ROCK    CLOUDY    72  67  84 S16G22    29.53F
6HR MIN TEMP:  68; 6HR MAX TEMP:  73;

N LITTLE ROCK    N/A     71  66  85 S12G23    29.52F
6HR MIN TEMP:  67; 6HR MAX TEMP:  72;

JACKSONVILLE   CLOUDY    73  67  81 SE9G21    29.52F
6HR MIN TEMP:  69; 6HR MAX TEMP:  74;

CONWAY           N/A     63  63 100 NE5       29.54F FOG
SEARCY         CLOUDY    72  67  84 S16G24    29.56F
6HR MIN TEMP:  69; 6HR MAX TEMP:  74;

HOT SPRINGS    LGT RAIN  63  63 100 VRB3      29.53S VSB 1
6HR MIN TEMP:  63; 6HR MAX TEMP:  73; 6HR PCP:  0.12;

RUSSELLVILLE   LGT RAIN  59  58  96 CALM      29.50F
6HR MIN TEMP:  57; 6HR MAX TEMP:  72; 6HR PCP:  0.83;

$$

ARZ036-261900-
EAST ARKANSAS

CITY           SKY/WX    TMP DP  RH WIND       PRES   REMARKS
WEST MEMPHIS   LGT RAIN  72  67  84 S18G24    29.62F
6HR MIN TEMP:  65; 6HR MAX TEMP:  75; 6HR PCP: TRACE;

$$

ARZ050-053-066-070-073-261900-
SOUTHWEST ARKANSAS

CITY           SKY/WX    TMP DP  RH WIND       PRES   REMARKS
ARKADELPHIA      N/A     75  68  78 S9        29.50F
6HR MIN TEMP:  69; 6HR MAX TEMP:  76;

CAMDEN         PTSUNNY   77  66  69 S10G23    29.50F
TEXARKANA      CLOUDY    76  69  79 S10       29.46F
6HR MIN TEMP:  69; 6HR MAX TEMP:  78; 6HR PCP: TRACE;

EL DORADO      LGT RAIN  78  69  73 S16G33    29.52F
6HR MIN TEMP:  69; 6HR MAX TEMP:  79;

DE QUEEN       CLOUDY    65  65 100 NE5       29.45F
6HR MIN TEMP:  64; 6HR MAX TEMP:  71; 6HR PCP:  1.54;

$$

ARZ056-057-069-261900-
SOUTHEAST ARKANSAS

CITY           SKY/WX    TMP DP  RH WIND       PRES   REMARKS
PINE BLUFF     LGT RAIN  70  67  90 SE9       29.56F
6HR MIN TEMP:  67; 6HR MAX TEMP:  71; 6HR PCP:  0.02;

STUTTGART      CLOUDY    73  57  56 S15G22    29.59F
6HR MIN TEMP:  68; 6HR MAX TEMP:  73;

MONTICELLO     CLOUDY    76  65  68 S14       29.59F
6HR MIN TEMP:  67; 6HR MAX TEMP:  76;


$$






USA.gov is the U.S. government's official web portal to all federal, state and local government web resources and services.